Printer-friendly version

IAU Minor Planet Center

Minor Planet Center

MPEC 2006-Q56 : 2006 QT89

The following Minor Planet Electronic Circular may be linked-to from your own Web pages, but must not otherwise be redistributed electronically.


Read MPEC 2006-Q55 Read MPEC 2006-Q57


M.P.E.C. 2006-Q56                                Issued 2006 Aug. 30, 12:48 UT

     The Minor Planet Electronic Circulars contain information on unusual
         minor planets and routine data on comets.  They are published
   on behalf of Commission 20 of the International Astronomical Union by the
          Minor Planet Center, Smithsonian Astrophysical Observatory,
                          Cambridge, MA 02138, U.S.A.

                  Supported in part by the Brinson Foundation
                  Supported in part by the TABASGO Foundation
             Prepared using the Tamkin Foundation Computer Network

                              MPC@CFA.HARVARD.EDU
          URL http://cfa-www.harvard.edu/iau/mpc.html  ISSN 1523-6714

                                   2006 QT89

Observations:
     K06Q89T* C2006 08 29.24852 22 44 11.97 -00 49 25.7          19.9 V EQ056703
     K06Q89T  C2006 08 29.25510 22 44 11.22 -00 49 46.0          19.9 V EQ056703
     K06Q89T  C2006 08 29.26167 22 44 10.60 -00 50 05.9          19.4 V EQ056703
     K06Q89T  C2006 08 29.26823 22 44 09.85 -00 50 29.0          20.0 V EQ056703
     K06Q89T  C2006 08 29.36715 22 43 58.90 -00 55 44.0          19.4 V EQ056703
     K06Q89T  C2006 08 29.37924 22 43 57.54 -00 56 23.1                 EQ056703
     K06Q89T  C2006 08 29.92358 22 43 02.02 -01 25 11.7                 EQ056J95
     K06Q89T  C2006 08 29.92646 22 43 01.73 -01 25 20.6                 EQ056J95
     K06Q89T  C2006 08 29.92924 22 43 01.44 -01 25 29.9          19.8 R EQ056J95
     K06Q89T  C2006 08 30.00188 22 42 53.68 -01 29 18.3          19.4 V EQ056J77
     K06Q89T  C2006 08 30.02233 22 42 51.49 -01 30 22.5          19.4 V EQ056J77
     K06Q89T  C2006 08 30.03364 22 42 50.26 -01 30 58.6          19.4 V EQ056J77
     K06Q89T  C2006 08 30.14647 22 42 39.43 -01 36 50.4          19.5 R EQ056734
     K06Q89T  C2006 08 30.14870 22 42 39.20 -01 36 57.2          19.9 R EQ056734
     K06Q89T  C2006 08 30.15093 22 42 38.97 -01 37 04.6          19.9 R EQ056734
     K06Q89T 5C2006 08 30.36019 22 42 16.73 -01 47 59.5          19.6 R EQ056673
     K06Q89T 5C2006 08 30.36528 22 42 16.17 -01 48 13.9                 EQ056673
     K06Q89T 5C2006 08 30.36956 22 42 15.68 -01 48 28.3                 EQ056673
     K06Q89T 5C2006 08 30.37569 22 42 15.05 -01 48 46.4                 EQ056673

Observer details:
673 Table Mountain Observatory, Wrightwood.  Observer J. Young.  0.61-m f/16
    Cassegrain + CCD.
703 Catalina Sky Survey.  Observer R. A. Kowalski.  Measurers E. C. Beshore,
    E. J. Christensen, G. J. Garradd, A. R. Gibbs, A. D. Grauer, R. E. Hill,
    R. A. Kowalski, S. M. Larson, R. H. McNaught.  0.68-m Schmidt + CCD.
734 Farpoint Observatory.  Observer D. Tibbets.  Measurer G. Hug.  0.7-m
    reflector + CCD.
J77 Golden Hill Observatory, Stourton Caundle.  Observer R. Miles.  0.28-m
    f/10 Schmidt-Cassegrain + CCD.
J95 Great Shefford.  Observer P. Birtwhistle.  0.40-m f/6.0 Schmidt-Cassegrain
    + CCD.

Orbital elements:
2006 QT89                                                Earth MOID = 0.0644 AU
Epoch 2006 Sept. 22.0 TT = JDT 2454000.5                MPC
M  77.95108              (2000.0)            P               Q
n   0.55467302     Peri.   55.78572     -0.76263438     +0.63502866
a   1.4670492      Node   162.54487     -0.64025574     -0.76815180
e   0.4652550      Incl.   24.20703     +0.09198581     -0.08173996
P   1.78           H   20.0           G   0.15           U   9
Residuals in seconds of arc
060829 703  0.4-  0.3-    060829 J95  0.0   0.3+    060830 734  0.2+  0.4-
060829 703  0.8-  0.4+    060829 J95  0.1+  0.3-    060830 673  0.1-  0.8-
060829 703  0.8+  1.5+    060830 J77  0.5+  0.1+    060830 673  0.2-  0.7+
060829 703  0.4+  0.7-    060830 J77  0.7+  0.3+    060830 673  0.6-  0.3-
060829 703  0.1+  0.2-    060830 J77  0.4+  0.3-    060830 673  0.1-  0.7+
060829 703  0.3-  0.8-    060830 734  0.0   0.2-
060829 J95  0.3-  0.1+    060830 734  0.1+  0.0

Ephemeris:
2006 QT89                a,e,i = 1.47, 0.47, 24                  q = 0.7845
Date    TT    R. A. (2000) Decl.     Delta      r     Elong.  Phase     V
2006 08 23    22 55.57   +04 59.0    0.451    1.443   159.5    14.2    19.9
2006 09 02    22 37.92   -04 01.5    0.500    1.508   175.7     2.9    19.7
2006 09 12    22 24.17   -11 10.5    0.577    1.571   164.7     9.7    20.4
2006 09 22    22 15.43   -16 12.8    0.679    1.630   150.8    17.5    21.1
2006 10 02    22 11.76   -19 26.6    0.799    1.686   138.8    23.0    21.7

Timothy B. Spahr             (C) Copyright 2006 MPC           M.P.E.C. 2006-Q56

Read MPEC 2006-Q55 Read MPEC 2006-Q57


Our Web policy. Index to the CBAT/MPC/ICQ pages.


Valid HTML 4.01!